TimeMST,TemperatureF,Dew PointF,Humidity,Sea Level PressureIn,VisibilityMPH,Wind Direction,Wind SpeedMPH,Gust SpeedMPH,PrecipitationIn,Events,Conditions,WindDirDegrees,DateUTC
12:56 AM,50.0,28.0,43,30.02,10.0,North,5.8,-,N/A,,Clear,360,2012-11-04 07:56:00
1:56 AM,46.0,26.1,46,30.04,10.0,Calm,Calm,-,N/A,,Clear,0,2012-11-04 08:56:00
2:56 AM,46.0,27.0,47,30.04,10.0,North,8.1,-,N/A,,Clear,10,2012-11-04 09:56:00
3:56 AM,42.1,25.0,51,30.05,10.0,Calm,Calm,-,N/A,,Clear,0,2012-11-04 10:56:00
4:56 AM,42.1,24.1,49,30.06,10.0,Calm,Calm,-,N/A,,Clear,0,2012-11-04 11:56:00
5:56 AM,43.0,27.0,53,30.08,10.0,Calm,Calm,-,N/A,,Clear,0,2012-11-04 12:56:00
6:56 AM,42.1,26.1,53,30.11,10.0,North,3.5,-,N/A,,Clear,350,2012-11-04 13:56:00
7:56 AM,52.0,28.9,41,30.10,10.0,NNW,3.5,-,N/A,,Clear,330,2012-11-04 14:56:00
8:56 AM,59.0,30.0,33,30.10,10.0,NW,6.9,-,N/A,,Clear,320,2012-11-04 15:56:00
9:56 AM,68.0,30.0,24,30.09,10.0,NW,8.1,-,N/A,,Clear,310,2012-11-04 16:56:00
10:56 AM,73.9,28.9,19,30.07,10.0,Variable,4.6,-,N/A,,Clear,0,2012-11-04 17:56:00
11:56 AM,79.0,28.9,16,30.03,10.0,ENE,4.6,-,N/A,,Clear,70,2012-11-04 18:56:00
12:56 PM,80.1,26.1,14,30.01,10.0,Variable,5.8,-,N/A,,Clear,0,2012-11-04 19:56:00
1:56 PM,79.0,23.0,13,29.99,10.0,Variable,3.5,-,N/A,,Clear,0,2012-11-04 20:56:00
2:56 PM,81.0,21.9,11,29.99,10.0,NE,4.6,-,N/A,,Clear,50,2012-11-04 21:56:00
3:56 PM,80.1,21.9,12,30.00,10.0,ESE,10.4,-,N/A,,Clear,110,2012-11-04 22:56:00
4:56 PM,78.1,27.0,15,30.01,10.0,North,5.8,-,N/A,,Clear,10,2012-11-04 23:56:00
5:56 PM,69.1,26.1,20,30.05,10.0,North,9.2,-,N/A,,Clear,350,2012-11-05 00:56:00
6:56 PM,66.0,26.1,22,30.07,10.0,NNE,10.4,-,N/A,,Clear,30,2012-11-05 01:56:00
7:56 PM,61.0,25.0,25,30.06,10.0,ENE,10.4,-,N/A,,Clear,60,2012-11-05 02:56:00
8:56 PM,54.0,24.1,31,30.08,10.0,West,4.6,-,N/A,,Clear,280,2012-11-05 03:56:00
9:56 PM,52.0,24.1,34,30.08,10.0,NW,10.4,-,N/A,,Clear,320,2012-11-05 04:56:00
10:56 PM,54.0,24.1,31,30.06,10.0,NNW,10.4,-,N/A,,Clear,340,2012-11-05 05:56:00
11:56 PM,53.1,23.0,31,30.06,10.0,North,10.4,-,N/A,,Clear,10,2012-11-05 06:56:00